Douglas Bisbee, AZ

10:10 AM MST on March 30, 2017 (GMT -0700)
Bisbee Douglas International

Weather History for KDUG - March, 2013

Change the Weather History Date:

Saturday, March 9, 2013

  Actual Average Record
Temperature  
Mean Temperature 44 °F 53 °F  
Max Temperature 53 °F 71 °F 89 °F (1989)
Min Temperature 34 °F 36 °F 16 °F (1964)
Degree Days  
Heating Degree Days 21 12  
Month to date heating degree days 99 111  
Since 1 July heating degree days 2303 2147  
Cooling Degree Days 0 0  
Month to date cooling degree days 0 0  
Year to date cooling degree days 0 0  
Moisture  
Dew Point 29 °F    
Average Humidity 61    
Maximum Humidity 82    
Minimum Humidity 39    
Precipitation  
Precipitation T in 0.01 in 0.34 in (1968)
Month to date precipitation 0.02 0.17  
Year to date precipitation 0.86 1.56  
Snow  
Snow 0.00 in - - ()
Month to date snowfall 0.0  
Snow Depth 0.00 in    
Sea Level Pressure  
Sea Level Pressure 29.96 in    
Wind  
Wind Speed 8 mph (NW)    
Max Wind Speed 30 mph    
Max Gust Speed 36 mph    
Visibility 10 miles    
Events Rain    
T = Trace of Precipitation, MM = Missing Value Source: NWS Daily Summary

Daily Weather History Graph

Daily Weather History Graph

Search for Another Location

Airport or City:

Trip Planner

Search our weather history database for the weather conditions in past years. The results will help you decide how hot, cold, wet, or windy it might be!

Date:

Astronomy

Mar. 09, 2013 Rise Set
Actual Time 6:35 AM MST 6:22 PM MST
Civil Twilight 6:11 AM MST 6:46 PM MST
Nautical Twilight 5:43 AM MST 7:15 PM MST
Astronomical Twilight 5:14 AM MST 7:43 PM MST
Moon 4:55 AM MST (3/9) 4:32 PM MST (3/9)
Length of Visible Light 12h 35m
Length of Day
11h 47m
Waning Crescent, 5% of the Moon is Illuminated
Mar 9
Waning Crescent
Mar 11
New
Mar 19
First Quarter
Mar 27
Full
Apr 2
Last Quarter

Hourly Weather History & Observations

Time (MST) Temp. Windchill Dew Point Humidity Pressure Visibility Wind Dir Wind Speed Gust Speed Precip Events Conditions
12:56 AM 41.0 °F - 34.0 °F 76% 29.91 in 10.0 mi Calm Calm - N/A   Mostly Cloudy
1:56 AM 41.0 °F 35.8 °F 33.1 °F 73% 29.90 in 10.0 mi WSW 8.1 mph - N/A   Mostly Cloudy
2:56 AM 39.9 °F - 32.0 °F 73% 29.88 in 10.0 mi Calm Calm - N/A   Partly Cloudy
3:56 AM 42.1 °F - 28.9 °F 60% 29.87 in 10.0 mi Calm Calm - N/A   Overcast
4:56 AM 37.0 °F 31.0 °F 28.9 °F 73% 29.89 in 10.0 mi West 8.1 mph - N/A   Clear
5:56 AM 35.1 °F - 27.0 °F 72% 29.91 in 10.0 mi Calm Calm - N/A   Clear
6:56 AM 34.0 °F 26.0 °F 28.0 °F 79% 29.95 in 10.0 mi NNW 10.4 mph - N/A   Clear
7:56 AM 39.9 °F - 30.0 °F 68% 29.96 in 10.0 mi Calm Calm - N/A   Clear
8:56 AM 43.0 °F 41.3 °F 28.9 °F 58% 29.95 in 10.0 mi NE 3.5 mph - N/A   Clear
9:56 AM 46.0 °F 39.3 °F 27.0 °F 47% 29.96 in 10.0 mi WSW 16.1 mph 20.7 mph N/A   Scattered Clouds
10:56 AM 48.9 °F - 27.0 °F 43% 29.95 in 10.0 mi WSW 12.7 mph 19.6 mph N/A   Scattered Clouds
11:56 AM 48.0 °F - 25.0 °F 41% 29.96 in 10.0 mi NNW 8.1 mph - N/A   Overcast
12:56 PM 48.9 °F - 24.1 °F 38% 29.94 in 10.0 mi WNW 11.5 mph 20.7 mph N/A   Overcast
1:56 PM 46.4 °F 41.5 °F 26.6 °F 46% 29.98 in 10.0 mi SSW 10.4 mph - N/A   Overcast
2:56 PM 51.1 °F - 28.0 °F 41% 29.91 in 10.0 mi NNW 12.7 mph 23.0 mph N/A   Scattered Clouds
3:56 PM 45.0 °F 39.7 °F 34.0 °F 65% 29.95 in 10.0 mi WNW 10.4 mph 31.1 mph 0.00 in Rain Light Rain
4:56 PM 43.0 °F 34.0 °F 30.9 °F 62% 29.98 in 10.0 mi WNW 21.9 mph 31.1 mph 0.00 in   Clear
5:56 PM 46.0 °F 40.6 °F 30.9 °F 56% 29.98 in 10.0 mi WNW 11.5 mph - N/A   Clear
6:56 PM 43.0 °F 38.2 °F 28.9 °F 58% 30.00 in 10.0 mi NW 8.1 mph - N/A   Clear
7:56 PM 42.1 °F 35.7 °F 30.0 °F 62% 30.01 in 10.0 mi NNW 11.5 mph - N/A   Mostly Cloudy
8:56 PM 39.0 °F 33.4 °F 30.0 °F 70% 30.03 in 10.0 mi NNW 8.1 mph - N/A   Clear
9:56 PM 37.0 °F 31.0 °F 28.9 °F 73% 30.03 in 10.0 mi North 8.1 mph - N/A   Clear
10:56 PM 37.0 °F 32.4 °F 30.9 °F 79% 30.03 in 10.0 mi NNW 5.8 mph - N/A   Overcast
11:56 PM 34.0 °F 28.0 °F 30.0 °F 85% 30.04 in 10.0 mi NNW 6.9 mph - N/A   Clear